Flag for U.S.A. Weather past 2 weeks in Allentown, Pennsylvania, U.S.A.

Now
81 °F

Broken clouds.


Feels Like: 84 °F
Forecast: 65 / 87 °F
Wind: 9 mph from West

Location: Lehigh Valley International Airport

Current Time: Jul 22, 2014 at 3:54:43 PM

Latest Report: Jul 22, 2014 at 12:58 PM


Visibility: 10 mi

Pressure: 30.15 "Hg

Humidity: 70%

Dew point: 70 °F

Location of AllentownLocation

Historic Weather in Allentown — Graph

°F

Allentown temperature yesterday

Maximum temperature yesterday: 83 °F (at 1:51 PM)
Minimum temperature yesterday: 62 °F (at 5:51 AM)
Average temperature yesterday: 74 °F

Past Weeks' High & Low Weather Summary

 TemperatureHumidityPressure
High91 °F (Jul 8, 3:51 PM)97% (Jul 11, 4:51 AM)30.25 "Hg (Jul 11, 4:51 AM)
Low56 °F (Jul 18, 5:51 AM)36% (Jul 17, 4:51 PM)29.65 "Hg (Jul 8, 7:51 PM)
Average74 °F69%30.02 "Hg
* Reported Jul 7 12:51 PM — Jul 22 12:58 PM, Allentown, Weather by CustomWeather, © 2014

Note: Actual official high and low records may vary slightly from our data, if they occured in-between our weather recording intervals... More about our weather records

Advertising

Allentown weather history for previous 24 hours

 ConditionsComfort  
Time TempWeatherWind HumidityBarometerVisibility
12:58 PM
Jul 22
81 °FBroken clouds.9 mph70%30.15 "Hg10 mi
11:51 AM81 °FBroken clouds.10 mph67%30.15 "Hg10 mi
10:51 AM79 °FScattered clouds.5 mph69%30.17 "Hg10 mi
9:51 AM77 °FSunny.5 mph71%30.17 "Hg10 mi
8:51 AM74 °FSunny.No wind74%30.19 "Hg10 mi
7:51 AM71 °FSunny.No wind81%30.19 "Hg8 mi
6:51 AM67 °FFog.No wind90%30.18 "Hg6 mi
5:51 AM64 °FFog.No wind90%30.17 "Hg5 mi
4:51 AM65 °FClear.3 mph91%30.17 "Hg7 mi
3:51 AM65 °FClear.No wind94%30.16 "Hg8 mi
2:51 AM67 °FClear.3 mph87%30.16 "Hg10 mi
1:51 AM68 °FClear.5 mph87%30.17 "Hg10 mi
12:51 AM68 °FClear.3 mph84%30.17 "Hg10 mi
11:51 PM
Jul 21
68 °FClear.No wind84%30.16 "Hg10 mi
10:51 PM73 °FClear.3 mph71%30.16 "Hg10 mi
9:51 PM74 °FClear.No wind69%30.16 "Hg10 mi
8:51 PM75 °FSunny.5 mph66%30.15 "Hg10 mi
7:51 PM78 °FSunny.6 mph56%30.14 "Hg10 mi
6:51 PM81 °FPartly sunny.3 mph56%30.15 "Hg10 mi
5:51 PM83 °FOvercast.8 mph55%30.15 "Hg10 mi
4:51 PM82 °FOvercast.8 mph55%30.14 "Hg10 mi
3:51 PM83 °FBroken clouds.No wind50%30.15 "Hg10 mi
Weather by CustomWeather, © 2014

See weather overviewHow to use our weather pages